Weather in Golovino

Russia / Vladimir Oblast     55°57′09″N   40°26′15″E
temp.,
°C
wind,
m/s
gust,
m/s
humid.,
%
clouds,
%
prec.,
mm/h
press.,
hPa
HPBL,
m
3 march, wed
wed300:00−2nw4129698 0.1 1008627
03:00−6nnw4129076 0.2 1010476
06:00−8nw4139248 0.0 1011440
09:00−7nw5129173 0.0 1013579
12:00−3nw5108455 0.0 1013822
15:00−2wnw498976 0.1 1012897
18:00−1w41194100 0.2 1010701
21:00−2w4129399 0.3 1009701
4 march, thu
thu400:00−2wsw51193100 0.2 1005775
03:00−2wsw61395100 0.6 1002783
06:000wsw71397100 1.3 9981036
09:00+1w61490100 2.0 9971186
12:000wnw61271100 0.8 9981364
15:000wnw5979100 0.8 9991104
18:00−4nnw2891100 0.0 1000337
21:00−6nw2292100 0.0 100127
5 march, fri
fri500:00−8nnw2395100 0.0 100173
03:00−10nnw2397100 0.0 100347
06:00−12nnw229664 0.0 100421
09:00−10nw129433 0.0 1006100
12:00−5w228646 0.0 1006411
15:00−4wsw139072 0.1 1007402
18:00−5nnw2396100 1.1 1008193
21:00−10wnw389179 1.2 1010176
6 march, sat
sat600:00−11wnw239653 0.0 101275
03:00−13wnw249572 0.1 101390
06:00−15nw239737 0.0 101483
09:00−14nnw369364 0.1 1015302
12:00−11nw358661 0.0 1016508
15:00−10nw368457 0.0 1015840
18:00−13wnw239187 0.0 101534
21:00−14wsw249482 0.1 101581
7 march, sun
sun700:00−14sw389333 0.0 1013147
03:00−13ssw4109217 0.0 1009259
06:00−10ssw6148993 0.0 1005676
09:00−7sw7159297 0.9 9991101
12:00−4sw71491100 1.2 9951173
15:00−3wnw71195100 3.4 993874
18:00−9sw2284100 1.0 99323
21:00−8sw5119189 1.1 994802